User: anonymous   Login
Location: Springfield
(37.2150°N, 93.2980°W)
Time: 22:04:45
(UTC-06:00)
Language:

N. Korean satellite - Orbit

View from above orbital plane
View from above orbital plane
View from above satellite
View from above satellite

Ground track
Ground track

The orbit data is extracted from the following two-line orbital elements,

1 39026U 12072A   19316.75200237 +.00001536 +00000-0 +57604-4 0  9999
2 39026 097.2156 315.2012 0036197 299.9359 059.8288 15.28161545383998
Epoch (UTC): 12 November 2019 18:02:53
Eccentricity: 0.0036197
inclination: 97.2156°
perigee height: 456 km
apogee height: 506 km
right ascension of ascending node: 315.2012°
argument of perigee: 299.9359°
revolutions per day: 15.28161545
mean anomaly at epoch: 59.8288°
orbit number at epoch: 38399

The dashed part of the orbit path shows where the satellite is in the earth's shadow,  

DLR